ランキン彗星

C/2020 R6 ( Rankin )

English version
Home page
Updated on June 14, 2021

---------------------------------------------------------------------

・ プロフィール

発見日 2020年9月15日
発見光度 20.2等
発見者 David Rankin (Mount Lemmon Survey)

・ 軌道要素

Epoch 2019 Aug. 25.0 TT = JDT 2458720.5
T 2019 Sept. 10.27412 TT                                Rudenko
q   3.1253732            (2000.0)            P               Q
z  +0.0016196      Peri.  271.93900     +0.05937307     +0.97607830
 +/-0.0007457      Node    12.16948     +0.28909976     +0.18373234
e   0.9949382      Incl.   82.82951     -0.95545600     +0.11624788
From 51 observations 2020 Sept. 15-Oct. 21, mean residual 1".0.

・ 光度変化

        m1 = 10.5 + 5 logΔ + 10.0 log r

---------------------------------------------------------------------

軌道要素はM.P.E.C. 2020-W26に掲載されたものです。
光度グラフはComet for Windowsで作成したものです。

---------------------------------------------------------------------

Copyright(C) Seiichi Yoshida (comet@aerith.net). All rights reserved.